Wind_Speed
17 16 15 14 15 15 15 14 14 15 15 16 17 17 17 17 19 18 19 19 19 18 17 17 17 16 15 15 14 13 13 13 13 13 13 12 12 12 12 11 11 10 10 10
17 15 15 16 15 15 16 16 15 15 15 16 17 18 19 19 19 19 21 23 21 19 19 18 18 18 16 15 14 14 14 14 14 15 13 13 14 14 14 13 12 12 12 12
16 15 16 16 16 16 16 17 16 15 15 18 20 20 20 21 21 21 22 22 23 22 20 19 20 19 18 16 16 16 15 16 16 15 16 16 16 16 15 14 14 13 14 14
17 16 17 17 17 16 17 17 16 17 18 19 22 23 21 21 21 21 21 23 23 22 20 19 20 20 19 19 18 18 17 17 17 17 17 17 17 16 16 15 15 15 15 15
16 17 17 18 17 18 18 18 18 19 20 21 22 24 22 22 21 21 22 22 22 22 21 20 21 21 20 21 21 20 20 20 19 18 18 18 18 17 17 17 16 16 16 16
17 17 17 17 16 18 19 19 20 21 22 22 22 25 24 22 22 22 22 23 23 23 22 22 22 22 22 22 22 22 22 21 20 20 20 19 19 18 18 17 18 18 18 18
16 16 17 16 16 17 18 19 21 22 22 22 22 25 26 23 22 23 24 25 25 25 24 24 24 24 25 24 25 24 24 23 22 21 21 20 20 20 19 19 19 19 19 19
15 14 15 16 17 17 18 21 22 23 23 22 22 25 25 24 23 24 24 25 26 26 26 26 25 26 26 26 25 25 24 24 24 23 22 21 21 21 20 20 20 20 20 21
14 14 15 17 18 18 18 20 22 23 24 24 23 23 24 23 23 24 25 26 26 27 28 28 27 27 26 25 24 24 24 25 25 24 24 24 22 22 22 21 21 22 22 22
16 16 16 17 18 19 20 20 22 24 25 25 26 25 25 24 24 25 26 27 28 29 29 29 30 29 28 27 24 23 24 25 25 25 25 25 24 24 24 23 23 23 24 24
18 18 17 18 19 21 22 23 24 25 26 27 28 27 27 27 26 26 28 29 29 29 30 31 30 29 29 28 26 25 25 25 26 26 26 27 27 26 26 24 24 24 24 25
20 20 19 19 20 22 23 25 25 26 27 28 29 29 27 28 28 28 28 29 29 29 31 32 30 29 29 29 29 27 26 26 27 28 28 28 28 28 28 28 27 26 25 26
21 22 22 21 22 23 24 25 26 27 28 29 30 30 28 29 29 29 29 30 31 31 32 32 31 30 29 29 30 29 28 29 28 29 29 29 29 30 30 29 29 27 26 26
22 23 23 23 23 24 25 25 26 28 29 29 29 29 28 29 30 30 31 33 32 32 32 32 32 31 31 30 30 30 30 30 30 30 30 30 30 30 30 30 29 29 28 27
22 23 23 23 24 25 26 26 26 27 28 29 29 30 29 30 31 32 33 34 33 33 33 33 34 32 31 31 31 32 32 31 31 31 31 31 31 31 31 31 30 29 29 27
23 23 22 22 23 25 25 26 26 27 28 29 28 29 30 30 31 32 32 33 34 35 34 35 34 33 32 32 32 32 32 31 31 31 31 30 30 31 31 30 29 28 28 27
22 22 22 22 23 23 24 23 25 27 28 28 28 28 30 31 30 31 31 32 33 34 34 35 34 33 32 31 31 30 31 32 31 31 31 31 31 31 31 31 31 29 28 27
22 23 23 23 23 23 22 22 23 24 25 26 27 27 28 29 29 29 30 31 31 33 33 33 34 34 33 31 31 31 31 30 31 31 31 32 32 32 31 31 31 30 29 28
21 22 22 22 22 22 21 21 21 23 24 25 27 28 28 28 27 27 28 29 30 31 31 32 32 32 31 30 30 30 29 30 31 31 32 32 32 32 32 31 30 29 28 27
21 21 21 21 21 21 20 19 20 22 24 25 26 26 26 26 27 27 28 28 29 29 29 29 30 31 30 30 30 30 30 30 30 30 31 31 32 31 31 31 30 29 28 28
20 20 20 21 21 21 20 20 21 23 24 24 24 24 25 26 27 27 28 28 28 28 28 28 29 30 29 29 30 30 29 29 30 31 30 30 30 30 30 30 29 28 28 28
19 20 19 20 21 21 21 22 22 23 24 24 23 24 25 25 25 26 26 26 27 27 28 28 28 29 29 28 28 29 29 28 28 29 29 29 29 29 30 30 29 29 29 28
20 19 20 20 21 21 21 22 23 23 23 23 24 25 25 25 25 25 25 25 26 26 27 27 27 28 28 27 27 27 27 27 28 28 29 29 29 30 30 30 28 29 29 29
20 20 21 22 21 21 22 22 23 23 24 24 24 24 24 24 24 25 25 24 24 25 25 25 26 27 27 26 25 26 26 27 27 26 27 28 29 29 28 28 28 28 28 29
19 21 21 21 21 21 21 22 23 24 23 23 23 24 23 23 23 23 24 24 24 24 24 24 24 24 25 25 25 25 25 26 26 25 25 26 26 25 25 25 25 26 26 26
19 20 21 21 22 22 22 23 23 23 24 23 23 22 23 23 22 23 23 23 23 23 24 23 23 24 23 23 24 24 24 24 24 24 24 23 23 24 24 23 23 24 24 25
Wind_Direction
231 233 232 233 235 233 229 227 234 243 248 255 261 260 260 267 273 271 274 279 283 285 287 288 290 294 293 288 282 283 285 288 290 292 292 293 300 302 305 301 298 304 303 298
235 237 234 233 232 231 229 233 237 248 253 257 259 260 260 264 270 275 276 281 278 279 283 285 286 290 291 287 281 280 281 282 284 286 287 290 294 294 294 294 292 294 296 294
236 237 235 233 232 237 237 240 243 252 251 253 258 261 262 263 268 274 279 282 280 278 282 283 284 285 286 286 281 279 283 280 281 281 284 287 289 291 289 287 286 289 293 292
235 235 235 235 237 240 243 244 246 249 249 251 256 260 263 264 266 270 276 281 283 276 275 276 278 280 281 283 283 281 282 281 279 279 281 284 285 285 284 284 282 283 288 290
238 236 237 240 242 246 248 248 248 250 251 253 257 262 264 264 265 267 271 276 278 277 272 274 276 278 280 281 280 281 282 282 280 279 281 281 280 282 282 282 281 283 285 285
242 239 240 241 242 248 251 251 250 250 250 253 255 262 263 264 268 269 270 274 276 277 273 274 276 276 277 278 277 276 278 278 278 279 280 279 279 280 280 281 281 282 282 280
242 240 240 240 242 247 250 251 252 251 253 255 256 260 264 266 269 269 268 269 271 271 272 272 272 274 274 274 274 272 275 275 275 276 277 277 277 278 278 279 279 279 279 279
242 239 240 244 247 246 250 255 256 257 259 259 258 260 264 265 268 271 271 269 269 269 269 270 271 272 273 274 273 271 275 276 277 277 275 275 276 274 275 277 276 274 275 276
247 240 239 245 249 252 254 256 260 262 263 264 264 264 264 266 267 270 271 271 271 270 271 271 270 272 275 278 275 271 272 273 274 275 276 274 273 272 272 273 274 273 273 273
251 248 243 245 250 253 255 258 260 261 262 264 266 266 267 266 268 269 267 270 272 273 273 272 271 273 276 277 276 271 271 271 273 276 276 275 274 273 272 273 273 273 272 273
256 256 250 247 247 251 252 255 258 261 264 267 269 268 269 268 268 270 270 272 274 274 275 274 272 272 275 277 277 271 270 272 273 273 274 275 273 272 271 271 272 271 272 272
260 261 256 251 251 252 253 255 258 260 262 264 268 271 270 271 270 271 272 272 274 274 276 275 271 272 275 275 276 273 271 273 272 272 274 274 272 270 271 271 272 271 270 270
259 260 259 254 251 253 255 257 259 263 264 264 267 269 270 271 271 271 272 273 275 275 275 274 273 274 274 274 274 273 272 271 271 273 274 274 273 272 273 273 271 270 271 270
262 263 262 258 254 255 257 260 263 264 264 265 266 268 269 270 270 272 273 273 274 275 274 272 273 273 274 274 275 275 273 271 272 274 275 274 274 274 273 272 271 271 270 269
264 265 265 263 260 258 259 262 263 264 265 265 266 267 268 270 271 272 273 273 274 273 273 275 274 273 271 271 273 273 274 274 275 274 273 273 274 274 274 272 270 269 268 267
266 266 266 266 266 263 261 262 265 265 265 266 269 270 270 272 274 274 274 274 273 274 274 273 273 272 270 270 273 274 273 273 275 273 272 272 272 273 274 272 270 271 268 266
266 268 268 267 266 267 264 264 265 266 266 269 272 274 273 273 276 278 275 274 274 275 275 274 273 271 270 271 272 274 275 273 274 272 271 272 272 272 272 269 269 269 267 265
268 270 271 271 269 269 266 265 267 270 272 273 275 276 277 278 278 277 276 276 276 275 275 273 273 273 272 272 274 274 274 273 273 273 273 272 271 270 270 269 268 267 264 262
269 270 271 272 272 271 268 269 271 273 275 276 276 277 280 281 280 281 281 280 278 275 274 273 274 273 271 273 274 275 275 274 275 273 271 271 271 269 268 267 266 264 261 259
268 270 271 273 275 275 273 271 274 276 278 280 282 281 283 282 281 281 283 283 280 277 275 274 274 275 274 274 274 274 275 275 275 274 272 271 270 269 267 264 263 262 260 259
269 270 270 272 275 275 275 275 277 279 281 283 284 284 284 284 287 284 284 282 280 278 278 278 277 277 277 275 275 274 275 275 275 273 271 270 269 266 264 263 261 260 259 257
271 272 271 275 276 275 277 277 277 281 281 282 283 284 285 287 290 288 288 286 285 282 281 281 281 280 279 277 275 275 276 276 277 275 272 269 268 265 262 261 259 257 257 256
272 273 274 278 279 277 277 279 281 283 284 284 284 286 286 286 290 290 290 289 286 285 284 283 283 282 280 280 278 277 277 277 277 275 273 268 267 265 263 260 258 256 255 254
275 273 274 277 278 278 280 282 284 287 288 288 287 287 288 288 289 290 291 292 289 287 287 286 286 283 281 281 279 278 277 278 277 274 272 270 268 265 264 261 257 255 253 251
276 276 277 277 278 279 280 283 286 290 291 291 291 290 290 294 294 296 295 293 291 290 289 288 287 286 283 280 279 278 278 277 276 276 274 271 267 263 263 261 256 253 253 251
275 277 279 279 279 280 281 282 286 289 291 292 293 293 292 294 294 296 298 296 294 292 290 289 288 288 287 285 281 278 278 277 277 275 273 270 266 265 264 261 257 255 254 253
Height
5878 5881 5882 5884 5885 5886 5887 5888 5888 5889 5889 5889 5889 5890 5891 5891 5892 5892 5893 5893 5893 5893 5892 5892 5890 5890 5889 5888 5887 5887 5886 5885 5884 5883 5882 5881 5881 5880 5879 5878 5878 5877 5876 5875
5875 5877 5879 5879 5880 5881 5882 5884 5884 5885 5885 5885 5885 5886 5887 5887 5888 5888 5889 5889 5889 5888 5888 5887 5886 5885 5885 5884 5884 5883 5882 5881 5881 5879 5878 5878 5878 5877 5876 5876 5875 5874 5873 5872
5871 5874 5874 5875 5876 5878 5879 5880 5880 5881 5881 5881 5881 5881 5881 5882 5883 5884 5884 5884 5884 5884 5883 5882 5881 5881 5881 5880 5880 5879 5878 5877 5876 5875 5874 5874 5874 5873 5872 5872 5871 5871 5870 5867
5866 5868 5869 5870 5872 5873 5874 5876 5876 5876 5876 5876 5877 5876 5876 5877 5878 5879 5879 5879 5879 5878 5878 5877 5876 5876 5876 5875 5875 5875 5874 5873 5872 5872 5871 5870 5869 5869 5868 5868 5867 5867 5866 5865
5862 5864 5864 5865 5867 5868 5870 5871 5871 5871 5871 5871 5871 5871 5872 5872 5873 5874 5873 5873 5873 5872 5872 5872 5871 5870 5870 5870 5870 5869 5868 5868 5867 5866 5866 5865 5865 5864 5864 5863 5863 5862 5862 5861
5858 5859 5860 5861 5863 5863 5864 5865 5866 5866 5866 5866 5867 5866 5866 5867 5867 5868 5867 5867 5867 5867 5866 5866 5865 5865 5864 5864 5863 5863 5863 5862 5862 5861 5861 5860 5860 5859 5859 5859 5858 5858 5857 5856
5854 5855 5856 5857 5858 5859 5859 5860 5861 5860 5861 5861 5862 5860 5861 5862 5861 5861 5861 5860 5860 5860 5860 5860 5859 5859 5858 5857 5857 5856 5856 5855 5855 5855 5855 5855 5854 5854 5854 5853 5853 5853 5852 5851
5849 5851 5852 5852 5853 5854 5855 5855 5856 5855 5855 5856 5856 5854 5856 5856 5855 5854 5854 5853 5853 5853 5853 5853 5853 5853 5852 5850 5850 5850 5850 5849 5849 5849 5848 5848 5848 5848 5848 5847 5847 5847 5846 5846
5845 5847 5847 5847 5848 5849 5849 5849 5850 5850 5849 5849 5849 5849 5849 5849 5849 5848 5848 5847 5847 5846 5846 5846 5845 5845 5845 5844 5843 5843 5843 5843 5843 5842 5842 5842 5842 5842 5841 5841 5841 5841 5840 5840
5840 5842 5843 5844 5844 5844 5844 5844 5844 5843 5843 5842 5843 5843 5843 5843 5843 5843 5841 5840 5840 5839 5838 5838 5837 5836 5837 5836 5836 5836 5836 5836 5836 5835 5835 5835 5835 5835 5834 5834 5834 5834 5834 5833
5835 5837 5838 5839 5839 5838 5838 5838 5837 5837 5837 5837 5836 5838 5837 5836 5836 5835 5834 5833 5833 5832 5831 5830 5829 5829 5829 5829 5829 5829 5829 5829 5829 5828 5828 5827 5827 5827 5827 5827 5827 5827 5827 5826
5830 5831 5832 5833 5833 5832 5832 5831 5831 5832 5831 5830 5829 5832 5829 5829 5828 5827 5826 5826 5825 5824 5822 5821 5821 5822 5821 5821 5821 5821 5821 5822 5822 5821 5820 5820 5819 5819 5819 5819 5819 5819 5819 5819
5825 5825 5826 5827 5829 5827 5826 5825 5825 5825 5824 5823 5822 5824 5822 5821 5820 5819 5818 5818 5817 5816 5814 5813 5813 5813 5813 5813 5813 5812 5813 5814 5814 5813 5812 5811 5811 5811 5811 5810 5810 5811 5811 5811
5819 5819 5820 5821 5821 5820 5819 5819 5818 5818 5817 5816 5815 5815 5815 5814 5813 5812 5810 5809 5808 5807 5806 5805 5803 5803 5804 5804 5805 5805 5804 5804 5804 5804 5803 5802 5802 5802 5801 5801 5801 5801 5802 5802
5813 5813 5813 5813 5813 5812 5812 5812 5811 5810 5809 5809 5808 5807 5807 5806 5805 5804 5802 5800 5798 5798 5797 5797 5796 5795 5796 5795 5795 5796 5796 5795 5795 5794 5794 5794 5794 5793 5792 5792 5792 5792 5793 5793
5805 5806 5806 5806 5806 5805 5805 5805 5804 5803 5802 5802 5801 5800 5799 5798 5796 5795 5794 5792 5790 5789 5788 5787 5787 5787 5787 5787 5786 5786 5785 5785 5785 5785 5785 5785 5784 5784 5784 5782 5782 5783 5783 5784
5799 5799 5799 5799 5799 5798 5798 5798 5797 5796 5795 5795 5794 5793 5791 5790 5788 5787 5785 5784 5782 5780 5779 5778 5778 5777 5777 5777 5777 5776 5776 5776 5776 5776 5775 5775 5775 5775 5775 5774 5774 5775 5775 5776
5793 5792 5792 5791 5792 5791 5794 5791 5790 5789 5788 5787 5786 5785 5783 5781 5780 5778 5776 5775 5773 5771 5770 5769 5769 5768 5768 5768 5767 5767 5767 5767 5766 5766 5766 5765 5765 5765 5765 5765 5765 5766 5767 5768
5786 5786 5785 5785 5784 5784 5785 5784 5783 5782 5781 5780 5779 5777 5775 5773 5772 5769 5768 5766 5765 5763 5762 5762 5761 5760 5759 5759 5758 5757 5757 5757 5757 5756 5756 5755 5755 5755 5755 5756 5756 5757 5758 5759
5780 5779 5779 5778 5778 5778 5780 5779 5777 5777 5775 5773 5771 5769 5768 5766 5764 5762 5760 5757 5756 5755 5754 5754 5753 5752 5751 5750 5749 5748 5748 5747 5747 5746 5746 5745 5745 5745 5745 5746 5747 5748 5749 5750
5774 5773 5773 5773 5772 5772 5773 5772 5772 5771 5770 5767 5765 5763 5761 5759 5756 5754 5752 5750 5749 5748 5747 5746 5745 5744 5743 5742 5740 5739 5739 5738 5737 5736 5736 5735 5735 5735 5735 5736 5737 5739 5740 5742
5768 5768 5767 5767 5767 5768 5766 5765 5765 5764 5762 5760 5759 5757 5754 5752 5749 5746 5745 5743 5741 5740 5739 5738 5737 5735 5734 5733 5731 5731 5730 5729 5728 5727 5726 5726 5726 5725 5726 5726 5727 5729 5731 5733
5763 5763 5762 5762 5763 5761 5759 5758 5758 5756 5755 5754 5752 5750 5748 5745 5743 5740 5738 5736 5734 5733 5731 5729 5728 5727 5726 5724 5723 5722 5721 5720 5719 5718 5717 5717 5716 5716 5716 5717 5718 5719 5721 5724
5757 5756 5756 5755 5755 5754 5753 5751 5750 5749 5748 5747 5745 5743 5741 5739 5736 5734 5731 5729 5727 5725 5723 5722 5720 5718 5717 5716 5714 5713 5712 5710 5709 5708 5707 5707 5707 5707 5707 5708 5709 5710 5712 5714
5752 5751 5750 5749 5749 5748 5747 5745 5744 5742 5741 5740 5738 5736 5734 5732 5730 5727 5724 5722 5720 5718 5716 5714 5712 5711 5709 5708 5706 5704 5703 5701 5700 5700 5699 5698 5698 5698 5699 5699 5699 5701 5703 5705
5746 5746 5745 5744 5743 5742 5740 5739 5737 5736 5735 5733 5732 5730 5727 5725 5723 5721 5718 5715 5713 5711 5709 5707 5705 5703 5702 5700 5698 5697 5695 5693 5692 5692 5691 5691 5690 5690 5691 5692 5693 5694 5695 5697